Location: Blue Mountain Vista Observatory
(40.6992°N, 75.9422°W)
Time: 15:23:35
(UTC-04:00)

Daily predictions for brighter satellites

Satellite Brightness Start Highest point End
(mag) Time Altitude Azimuth Time Altitude Azimuth Time Altitude Azimuth
Okean 3 3.5 20:44:56 10° S 20:49:13 80° E 20:53:30 10° N
Cosmos 1570 Rocket 4.2 20:44:52 10° S 20:50:02 54° ESE 20:55:16 10° NNE
Cosmos 2082 Rocket 3.8 20:45:44 10° SW 20:51:04 42° WNW 20:56:28 10° N
Cosmos 2322 Rocket 3.2 20:48:21 10° N 20:53:20 31° ENE 20:58:16 10° ESE
NOAA 11 4.4 20:48:06 10° SSE 20:53:26 55° ENE 20:58:45 10° N
NOSS 3-2 (A) 3.4 20:49:06 10° SSW 20:54:53 70° ESE 21:01:18 10° NE
Cosmos 2233 Rocket 4.3 20:50:10 10° SSE 20:55:57 45° E 21:01:47 10° NNE
USA 234 3.3 20:49:57 10° NE 20:56:25 59° SE 21:02:52 10° SSW
ARGOS 4.2 20:53:29 10° SE 20:58:03 29° ENE 21:02:38 10° N
NOSS 3-2 (C) 3.5 20:54:37 10° SSW 21:00:17 54° ESE 21:06:31 10° NE
SL-16 R/B 2.9 20:56:46 10° N 21:02:05 39° ENE 21:07:21 10° SE
Resurs 01 Rocket 1.7 21:00:00 10° SSE 21:04:24 89° W 21:08:50 10° NNW
SJ-11-01 4.3 21:02:10 10° SSE 21:06:53 88° ENE 21:11:39 10° NNW
Cosmos 2084 3.9 21:03:07 10° S 21:07:08 37° ESE 21:10:58 10° NE
ERS-1 Rocket 4.4 21:07:55 10° ESE 21:11:50 23° ENE 21:15:46 10° NNE
Cosmos 1898 Rocket 3.8 21:08:03 10° N 21:13:15 53° ENE 21:18:12 11° SE
H-2A R/B 3.0 21:10:21 11° SE 21:14:30 30° ENE 21:18:49 10° N
Cosmos 2208 Rocket 4.0 21:15:23 10° SSW 21:20:34 89° ESE 21:25:46 10° NNE
Atlas Centaur 2 3.0 21:18:35 10° SW 21:20:55 16° S 21:22:38 12° SSE
Cosmos 304 Rocket 4.3 21:17:50 10° SSW 21:22:36 64° WNW 21:27:24 10° NNE
CENTAUR R/B 3.0 21:18:42 10° S 21:23:57 35° ESE 21:29:51 10° NE
Cosmos 1975 2.8 21:21:18 10° N 21:25:22 88° E 21:29:23 10° S
ATLAS CENTAUR R/B 3.2 21:25:52 10° NW 21:29:53 30° WSW 21:34:04 10° S
ISS -1.9 21:27:24 10° W 21:30:24 33° NNW 21:33:26 10° NE
Helios 1B rocket 4.4 21:30:11 10° ENE 21:31:55 12° E 21:32:19 12° E
Cosmos 990 Rocket 4.2 21:27:27 10° N 21:32:35 56° ENE 21:36:35 17° SE
Timation 2 Rocket 3.8 21:27:35 10° SSW 21:33:33 85° ESE 21:39:38 10° NNE
Meteor 1-19 Rocket 4.3 21:28:39 10° S 21:34:31 71° E 21:40:25 10° NNE
Cosmos 1242 Rocket 2.5 21:30:58 10° N 21:34:38 77° E 21:37:29 15° SSE
Abrixas rocket 2.5 21:31:26 10° WSW 21:34:38 68° NNW 21:37:52 10° ENE
ATLAS 3B R/B 3.8 21:29:58 10° SW 21:36:55 51° NW 21:43:38 10° NNE
BREEZE-M DEB (TANK) 2.8 21:38:25 10° WNW 21:40:41 47° SSW 21:42:59 20° SE
Meteor 1-12 Rocket 4.5 21:36:30 10° NNW 21:42:29 82° W 21:48:29 10° S
Cosmos 2360 Rocket 3.1 21:38:43 10° N 21:43:52 35° ENE 21:47:26 18° ESE
Cosmos 1464 Rocket 4.4 21:40:17 13° SSE 21:45:43 47° E 21:51:47 10° NNE
Cosmos 1980 Rocket 3.8 21:41:31 10° NW 21:46:23 30° WSW 21:51:15 10° SSW
Tiangong 2 1.2 21:43:54 10° W 21:47:03 74° NNW 21:49:55 12° ENE
Cosmos 2219 Rocket 4.3 21:45:31 10° NNE 21:47:56 13° NE 21:50:21 10° ENE
Cosmos 2150 Rocket 4.3 21:42:40 10° N 21:47:58 54° ENE 21:51:19 21° SE
Cosmos 1666 3.5 21:47:50 10° NNW 21:51:36 50° W 21:55:11 11° SSW
Aureole 2 Rocket 2.9 21:49:06 10° N 21:51:47 31° ENE 21:52:24 28° E
Cosmos 292 Rocket 3.9 21:48:31 10° S 21:53:05 53° ESE 21:57:43 10° NNE
USA 245 3.7 21:54:16 28° SE 21:55:40 45° ENE 21:59:41 10° N
Meteor 2-9 Rocket 4.1 21:50:35 10° N 21:55:56 76° E 21:59:45 20° SSE
BREEZE-M DEB (TANK) 3.4 21:59:00 10° W 22:00:28 15° SW 22:00:45 14° SW
Meteor 1-23 Rocket 4.5 21:57:46 20° SSE 22:01:17 48° E 22:06:36 10° NNE
Cosmos 1743 3.9 21:57:44 10° NNW 22:01:21 40° W 22:04:38 12° SSW
Cosmos 2333 Rocket 4.2 22:02:42 10° N 22:06:07 16° NE 22:09:32 10° E
CSL-04 DEB 4.4 22:04:41 26° SSE 22:07:02 88° WSW 22:11:10 10° NNW
Cosmos 1455 Rocket 3.0 22:03:27 10° N 22:07:50 82° E 22:10:07 28° SSE
Cosmos 2298 Rocket 4.0 22:03:05 10° NNW 22:08:25 89° WSW 22:11:30 26° SSE
COSMOS 2428 4.2 22:05:04 10° N 22:09:41 25° NE 22:12:36 17° E
MetOp-A 4.4 22:05:38 17° S 22:09:45 68° WSW 22:15:06 10° NNW
Shenzhou-11 Module 2.0 22:07:20 10° WNW 22:10:18 73° NNE 22:11:00 47° E
Lacrosse 5 rocket 2.6 22:06:25 10° NNW 22:10:21 33° NE 22:12:28 20° E
Cosmos 1937 Rocket 3.7 22:07:38 10° NNW 22:12:44 63° WSW 22:15:56 22° S
Cosmos 540 Rocket 3.6 22:11:04 24° S 22:14:00 53° ESE 22:19:03 10° NNE
Meteor 2-4 Rocket 3.8 22:10:48 10° SSW 22:16:12 74° W 22:21:47 10° N
Cosmos 1833 4.1 22:11:40 10° SSW 22:17:23 76° ESE 22:23:05 10° NNE
Cosmos 1763 Rocket 4.2 22:13:54 10° SW 22:19:06 56° WNW 22:24:19 10° N
USA 32 4.2 22:14:49 10° N 22:20:03 73° W 22:23:30 22° S
Cosmos 841 Rocket 3.7 22:18:29 10° SSW 22:23:42 73° WNW 22:28:59 10° NNE
CZ-4C R/B 3.8 22:19:11 10° NNW 22:25:45 38° NE 22:30:53 18° ESE
CZ-2C R/B 4.3 22:25:28 24° ESE 22:27:23 31° ENE 22:32:12 10° N
SL-08 RB Rocket 4.4 22:27:05 23° SSW 22:29:40 48° W 22:34:06 10° NNW
Landsat 7 3.9 22:31:29 41° SE 22:33:00 64° ENE 22:37:43 10° N
Helios 1A 2.9 22:32:26 45° S 22:33:40 86° W 22:37:51 10° NNW
Cosmos 2322 3.8 22:28:35 10° NNW 22:34:18 65° ENE 22:36:31 37° SE
Cosmos 1515 3.9 22:33:13 34° SSW 22:34:43 67° W 22:38:33 10° N
Cosmos 1340 Rocket 3.7 22:31:55 17° SSW 22:34:49 47° WNW 22:38:46 10° N
Cosmos 1544 Rocket 4.3 22:30:42 10° NNW 22:34:58 48° W 22:37:13 25° SSW
Cosmos 2322 Rocket 3.3 22:32:16 10° NW 22:37:23 37° WSW 22:40:38 20° SSW
Cosmos 372 Rocket 4.1 22:32:59 10° NNW 22:38:04 58° ENE 22:39:34 41° SE
ARGOS 4.3 22:34:10 15° SSW 22:38:08 37° W 22:43:08 10° NNW
USA 234 4.3 22:33:06 10° NE 22:39:17 46° NNW 22:45:28 10° WSW
Cosmos 2237 Rocket 4.3 22:37:20 10° N 22:40:54 17° NE 22:43:49 12° E
SPOT 5 2.6 22:40:13 45° S 22:41:32 79° WSW 22:46:06 10° NNW
Cosmos 1066 Rocket 4.3 22:43:53 42° SE 22:45:04 50° E 22:50:17 10° NNE
SL-16 R/B 3.6 22:41:10 10° NW 22:46:01 30° WSW 22:49:18 17° SSW
SL-19 R/B 4.5 22:45:58 38° SSE 22:48:28 79° ENE 22:54:59 10° NNW
SJ 16-02 1.2 22:44:57 10° NNW 22:49:25 86° ENE 22:50:11 61° SSE
SPOT 1/Viking Rocket 3.6 22:47:58 39° S 22:49:55 72° WSW 22:55:05 10° NNW
Okean 2 3.3 22:49:35 63° S 22:50:15 88° E 22:54:27 10° N
ERS-1 Rocket 3.9 22:47:49 24° SSW 22:50:22 41° W 22:55:06 10° NNW
Cosmos 1536 Rocket 4.3 22:48:40 25° SW 22:50:58 50° W 22:55:20 10° N
Terra 1.9 22:50:46 51° SE 22:51:44 65° ENE 22:56:28 10° N
Cosmos 1092 Rocket 4.1 22:47:11 10° N 22:53:29 60° E 22:55:32 41° SE
H-2A R/B 3.4 22:50:59 18° SW 22:53:50 30° W 22:58:15 10° NW
Nadezhda 4 Rocket 4.0 22:50:48 10° N 22:57:08 87° W 22:59:41 39° S
Cosmos 1356 Rocket 3.3 23:01:31 71° SSW 23:01:58 88° WNW 23:06:17 10° N
COSMOS 2455 4.5 23:04:27 18° E 23:04:27 18° E 23:07:17 10° ENE
Cosmos 2237 4.2 22:57:30 10° NNW 23:03:15 76° WSW 23:04:51 49° S
Cosmos 2219 3.4 23:02:56 48° SE 23:03:33 50° ESE 23:09:06 10° NE
Meteor 1-29 3.3 23:02:13 10° N 23:05:28 64° NW 23:05:28 64° NW
Helios 1B rocket 3.1 23:03:28 10° N 23:07:30 52° WNW 23:08:40 38° WSW
ISS -0.5 23:05:57 10° NW 23:07:39 13° N 23:09:21 10° NNE
Cosmos 783 Rocket 4.5 23:07:26 57° SE 23:07:58 61° ESE 23:13:11 10° NNE
Cosmos 1125 Rocket 3.4 23:03:22 10° NNW 23:08:39 82° WSW 23:09:40 58° S
Spot 1 4.1 23:12:09 59° WSW 23:12:22 60° WSW 23:16:24 10° NNW
Cosmos 2058 Rocket 4.3 23:08:32 10° NNE 23:12:20 29° ENE 23:12:20 29° ENE
CENTAUR R/B 3.7 23:08:40 10° WSW 23:14:24 43° NW 23:21:01 10° NNE
IGS 5A 3.7 23:14:28 57° WSW 23:14:40 58° W 23:18:47 10° NNW
Spot 4 4.4 23:14:28 41° E 23:14:51 42° ENE 23:19:25 10° N
MINOTAUR IV R/B 4.5 23:21:14 85° SSW 23:21:22 90° ESE 23:26:00 10° NNE
CARTOSAT-1 4.1 23:22:27 48° WSW 23:22:44 49° W 23:26:56 10° NNW
Tiangong 2 3.4 23:20:50 10° WNW 23:22:08 22° WNW 23:22:08 22° WNW
Cosmos 2026 Rocket 4.0 23:18:09 10° N 23:24:17 66° E 23:25:29 54° SE
Cosmos 192 4.5 23:27:32 58° E 23:27:32 58° E 23:31:59 10° NNE
Cosmos 2279 Rocket 4.2 23:26:19 48° ESE 23:27:10 52° E 23:33:09 10° NNE
Cosmos 2360 Rocket 3.3 23:22:47 10° NW 23:27:46 33° WSW 23:29:12 29° SW
Cosmos 2333 4.1 23:22:11 10° NNW 23:27:51 78° WSW 23:28:46 63° S
NOSS 0 Rocket 4.4 23:23:14 10° NNW 23:29:21 53° ENE 23:30:53 43° ESE
Cosmos 1544 3.9 23:26:20 10° NNW 23:29:16 51° NNW 23:29:16 51° NNW
CZ-2C R/B 2.6 23:26:59 10° NNE 23:32:39 80° ESE 23:33:28 66° S
Cosmos 2219 Rocket 2.1 23:27:15 10° NNW 23:32:52 76° ENE 23:33:35 66° ESE
Cosmos 2142 Rocket 4.3 23:33:59 58° S 23:35:19 85° E 23:41:33 10° N
Cosmos 1025 Rocket 4.4 23:38:39 29° WSW 23:39:35 32° WNW 23:43:33 10° NNW
Cosmos 1842 4.4 23:41:45 37° NE 23:41:45 37° NE 23:44:20 10° NNE
Cosmos 1805 4.3 23:38:38 10° N 23:41:30 42° NNE 23:41:30 42° NNE
Cosmos 1606 Rocket 3.7 23:38:12 10° NNW 23:42:19 70° WNW 23:42:19 70° WNW
Cosmos 1627 Rocket 4.5 23:42:35 10° N 23:48:45 73° W 23:49:52 59° SSW
Lacrosse 5 rocket 3.0 23:45:45 10° WNW 23:48:08 26° W 23:48:08 26° W
Cosmos 2333 Rocket 2.0 23:45:25 10° NNW 23:51:09 87° WSW 23:51:37 76° S
COSMOS 2428 3.1 23:48:43 10° NW 23:54:12 50° WSW 23:54:36 49° WSW
